Dewpoint
-9 -7 11 8 3 6 10 13 12 10 10 8 -3 5 6 6 6 8 10 11 12 11 10 10 12 12 11 10 12 11 10 8 6
-8 -6 11 10 9 12 13 12 10 11 10 2 0 7 7 8 7 10 11 11 10 9 8 7 9 10 10 10 11 12 12 12 12
-8 -8 -3 6 9 13 12 11 11 10 6 -4 3 7 8 8 7 7 9 10 8 6 3 8 8 6 7 8 8 10 11 11 11
-8 -8 -2 4 7 10 10 10 9 4 -2 -1 4 8 8 8 8 7 8 9 6 5 8 9 8 7 4 -0 -1 1 1 4 7
-6 -7 -5 2 5 6 5 2 -2 -1 2 4 7 8 9 9 8 8 8 7 5 5 4 4 -0 0 -1 -2 -3 -3 -4 -3 -3
-4 -4 -4 -2 2 0 -2 -1 2 3 4 5 6 8 9 9 9 9 8 7 8 6 1 -0 -2 -2 -4 -5 -6 -7 -8 -9 -9
-3 -2 -1 -1 -1 -0 1 3 4 4 5 6 8 9 9 8 8 8 6 6 8 5 -0 -3 -4 -6 -8 -9 -10 -12 -12 -12 -12
2 -2 -1 -0 0 1 2 3 5 6 6 7 8 8 7 7 6 5 4 6 8 0 -4 -8 -8 -9 -11 -12 -13 -12 -12 -12 -13
7 4 1 0 1 2 3 4 6 7 7 7 8 8 7 6 4 2 -2 2 5 -3 -7 -10 -10 -11 -12 -12 -13 -15 -17 -19 -20
7 9 7 1 2 3 4 5 6 7 7 8 8 7 6 3 0 -4 -7 -8 -7 -7 -9 -11 -11 -12 -12 -15 -17 -18 -19 -20 -21
6 8 9 5 2 4 5 6 7 8 8 8 8 7 5 3 -3 -6 -9 -10 -10 -10 -10 -10 -12 -13 -16 -18 -18 -19 -21 -21 -21
4 6 9 8 7 4 5 7 8 8 9 9 8 8 5 0 -4 -7 -10 -11 -11 -10 -10 -12 -13 -15 -17 -18 -19 -20 -20 -21 -21
4 5 8 8 8 5 6 7 9 9 9 9 9 8 6 -2 -5 -7 -10 -12 -12 -11 -11 -13 -14 -16 -17 -19 -19 -19 -20 -20 -20
10 6 6 9 10 9 7 8 9 10 10 9 9 8 7 -3 -5 -7 -9 -12 -13 -13 -13 -15 -16 -16 -17 -18 -18 -18 -19 -20 -20
11 10 5 8 10 10 9 9 10 10 10 9 8 7 5 -4 -4 -6 -8 -11 -12 -12 -13 -14 -14 -15 -16 -17 -17 -18 -18 -19 -20
10 10 8 5 9 9 8 9 10 10 10 9 8 7 2 -4 -4 -5 -7 -10 -11 -11 -12 -12 -13 -13 -14 -15 -16 -17 -18 -19 -20
10 10 10 8 8 9 8 8 10 10 10 9 8 3 1 -4 -3 -3 -5 -8 -9 -10 -10 -10 -11 -12 -12 -14 -15 -17 -18 -19 -20
9 9 9 10 10 10 9 8 9 10 10 9 7 3 1 -2 -3 -3 -5 -6 -8 -9 -8 -9 -10 -10 -11 -13 -15 -17 -18 -19 -21
9 9 9 9 9 10 10 9 9 10 10 9 9 7 3 -3 -3 -4 -4 -6 -7 -8 -8 -9 -10 -10 -11 -13 -16 -17 -18 -20 -21
9 9 8 8 8 8 9 10 9 10 10 10 10 8 5 1 -2 -4 -4 -4 -6 -7 -8 -9 -10 -10 -12 -15 -16 -17 -19 -20 -21
Wind_Speed
6 8 11 8 19 19 15 13 9 4 1 2 6 8 8 9 8 9 11 12 9 7 5 7 9 7 7 7 4 3 3 3 2
6 8 14 14 19 15 15 13 8 5 2 2 7 8 9 8 8 9 11 10 5 3 3 2 2 1 1 5 7 12 9 10 4
7 8 10 13 15 16 14 10 8 6 3 6 7 7 6 6 6 6 7 5 2 4 3 1 2 3 2 1 2 1 3 1 1
7 8 10 12 14 13 12 10 8 6 6 7 7 6 6 4 4 4 4 0 4 3 3 1 1 2 3 4 3 3 5 5 6
8 8 10 12 12 11 10 9 8 8 7 7 6 5 4 2 1 1 0 3 5 1 1 4 4 3 4 5 5 6 6 5 5
10 10 10 11 12 11 10 10 9 7 6 5 5 5 3 2 2 2 3 5 2 4 4 5 5 5 5 6 6 6 7 7 7
11 11 11 11 11 11 11 10 8 7 6 5 5 4 4 3 3 4 5 5 6 6 6 6 5 5 5 5 5 5 5 5 5
12 12 12 12 12 11 12 10 9 7 6 5 5 4 4 4 5 5 5 4 9 7 7 6 5 4 4 4 4 4 4 5 5
14 13 13 12 11 11 11 11 10 9 7 7 6 6 6 5 6 6 7 6 11 9 8 6 5 4 4 4 4 5 5 5 6
16 15 14 14 13 12 13 12 11 10 8 7 7 7 7 7 7 7 7 9 11 10 8 5 4 4 4 4 5 6 7 8 7
17 17 17 16 14 14 14 13 13 11 10 9 8 8 8 8 8 8 8 8 9 9 7 5 4 5 5 7 9 8 9 8 9
19 19 19 18 17 17 17 16 14 13 11 10 9 9 9 9 9 9 8 9 9 9 7 5 5 5 8 8 9 10 11 12 12
22 22 21 20 19 19 19 18 16 15 13 12 12 12 11 11 11 10 10 10 10 10 9 7 7 7 7 8 8 11 12 15 15
24 24 23 23 23 21 21 21 19 16 15 15 13 14 13 13 12 12 11 11 11 11 10 9 9 9 9 9 10 12 14 15 16
24 24 25 26 27 25 24 22 21 19 18 17 16 16 15 15 14 14 13 13 13 12 11 11 11 10 11 11 12 14 15 16 16
23 24 26 30 30 28 24 25 24 23 22 19 18 18 18 17 17 16 16 16 15 15 14 14 13 14 14 14 15 16 18 17 17
26 27 28 30 31 31 29 30 27 26 25 24 20 14 19 21 21 20 19 19 18 17 17 16 16 17 16 17 19 20 19 19 18
31 32 31 31 32 33 31 32 31 30 29 28 21 9 12 13 20 22 21 21 21 20 20 19 19 19 19 20 21 22 21 20 19
35 34 34 34 33 34 33 32 34 34 33 30 29 28 20 11 9 16 20 22 23 23 22 21 21 21 22 22 23 24 23 22 23
38 37 36 35 36 36 36 35 36 36 36 35 33 31 30 27 24 18 21 23 24 25 24 23 22 22 23 23 24 24 23 24 25
Wind_Direction
154 144 124 122 143 151 157 165 169 180 200 29 114 103 106 110 97 97 96 87 82 92 82 67 79 60 37 68 28 15 35 25 58
145 146 140 140 145 153 159 165 177 199 236 158 131 116 112 111 100 110 100 87 97 77 35 34 80 111 69 110 95 79 88 71 96
150 153 147 148 164 161 166 177 187 210 214 157 143 129 114 102 88 111 102 84 9 6 20 56 263 258 280 281 274 177 166 160 125
155 158 152 149 157 164 176 187 204 206 172 160 155 141 129 110 94 100 101 42 355 20 86 104 318 18 329 318 313 271 267 258 251
162 161 163 164 166 172 184 191 188 179 164 159 160 158 150 141 127 139 272 315 333 356 313 263 305 316 313 314 308 302 303 305 295
173 167 167 168 170 174 178 181 181 173 169 169 175 177 191 217 227 254 296 317 317 310 309 292 306 305 304 301 302 303 304 301 301
184 180 176 175 177 178 181 186 185 183 183 189 187 196 220 239 250 267 296 317 274 301 316 305 302 302 305 303 309 310 313 316 314
197 194 194 190 187 190 192 191 190 192 197 199 199 210 231 245 250 267 279 273 266 302 311 307 303 311 319 318 323 329 334 333 327
210 209 207 204 202 199 199 199 200 205 211 209 220 242 251 247 257 269 274 250 261 306 308 305 302 311 318 324 328 326 328 331 323
220 218 216 211 209 208 207 208 209 216 215 217 240 250 250 256 263 271 268 259 271 285 291 298 295 301 309 324 324 324 326 328 326
227 225 223 218 215 216 214 214 217 219 218 227 244 250 254 263 270 271 265 261 267 274 273 278 281 293 310 316 320 325 328 328 325
232 230 226 222 222 221 221 218 219 220 229 239 252 254 254 258 266 266 259 256 257 254 257 254 261 276 297 307 316 322 325 325 325
238 233 228 222 223 225 225 223 225 227 232 241 253 255 256 261 264 262 261 256 251 252 253 257 255 275 287 297 309 315 321 323 324
241 237 231 226 227 229 228 227 228 235 237 243 250 255 256 258 260 259 258 249 248 249 253 256 261 278 284 292 302 308 312 315 315
240 240 232 229 231 230 229 228 230 236 236 242 251 254 252 253 256 256 253 249 249 249 254 259 265 274 278 284 293 301 306 306 308
242 239 233 227 232 232 234 231 231 235 232 238 246 250 250 251 252 252 251 248 248 249 255 262 266 272 278 285 292 299 301 299 300
246 243 236 230 230 230 232 231 232 231 230 233 238 246 251 249 249 250 248 247 246 249 255 260 264 270 278 285 293 300 297 297 295
245 244 243 237 232 235 234 234 232 232 229 231 227 218 230 239 242 245 247 247 248 249 256 262 265 270 277 284 294 297 297 296 291
245 246 245 246 244 239 238 237 237 234 232 232 234 235 243 230 242 242 242 245 246 251 254 258 264 270 277 285 291 294 295 295 293
244 243 245 245 244 246 245 239 236 238 235 234 240 238 241 244 247 257 249 249 245 246 249 254 261 269 277 285 288 290 291 292 293
Height
1557 1558 1559 1561 1561 1563 1565 1566 1567 1568 1570 1570 1570 1570 1571 1572 1573 1573 1574 1574 1574 1574 1574 1574 1573 1572 1571 1571 1571 1570 1571 1570 1570
1557 1559 1560 1562 1563 1565 1566 1567 1568 1569 1570 1570 1571 1572 1572 1573 1574 1574 1575 1575 1575 1575 1574 1574 1574 1573 1572 1571 1571 1571 1570 1569 1569
1558 1559 1560 1561 1563 1565 1566 1567 1568 1569 1569 1570 1571 1572 1573 1574 1574 1575 1575 1575 1575 1575 1574 1574 1573 1572 1572 1571 1571 1570 1570 1569 1569
1558 1559 1560 1561 1563 1565 1566 1567 1567 1568 1569 1570 1571 1572 1573 1574 1575 1576 1575 1575 1575 1574 1573 1572 1572 1572 1572 1571 1570 1569 1568 1568 1568
1558 1560 1560 1561 1563 1564 1566 1567 1567 1568 1570 1571 1572 1572 1573 1574 1575 1576 1575 1575 1575 1573 1573 1572 1571 1571 1570 1569 1569 1568 1567 1567 1566
1558 1559 1561 1561 1563 1564 1565 1566 1567 1568 1570 1571 1572 1573 1574 1575 1575 1575 1575 1575 1574 1573 1572 1571 1570 1570 1569 1568 1567 1566 1565 1565 1565
1558 1559 1560 1562 1563 1564 1564 1566 1567 1568 1570 1571 1572 1573 1574 1574 1575 1575 1575 1575 1573 1573 1572 1571 1569 1569 1568 1567 1566 1565 1564 1564 1563
1556 1558 1559 1561 1562 1563 1564 1565 1567 1568 1569 1570 1571 1572 1573 1573 1574 1574 1574 1573 1571 1571 1570 1569 1569 1568 1567 1566 1565 1564 1564 1563 1562
1555 1556 1558 1559 1561 1562 1563 1564 1566 1567 1568 1569 1570 1571 1571 1571 1571 1571 1571 1571 1569 1569 1569 1568 1568 1567 1566 1564 1564 1564 1563 1562 1561
1553 1555 1556 1557 1559 1561 1562 1563 1564 1566 1566 1567 1568 1569 1569 1569 1569 1569 1569 1568 1568 1567 1567 1566 1566 1565 1564 1564 1563 1563 1562 1561 1560
1551 1553 1554 1556 1557 1559 1560 1561 1562 1563 1564 1565 1565 1566 1567 1568 1568 1567 1567 1566 1566 1565 1565 1565 1565 1564 1563 1562 1561 1561 1560 1560 1559
1547 1550 1551 1553 1555 1556 1558 1558 1560 1561 1563 1563 1564 1564 1564 1564 1565 1565 1564 1564 1564 1563 1563 1563 1563 1563 1562 1561 1560 1559 1558 1558 1557
1544 1546 1548 1550 1551 1552 1554 1555 1557 1558 1559 1560 1561 1562 1562 1562 1562 1562 1562 1561 1562 1562 1561 1561 1561 1561 1561 1560 1559 1558 1556 1555 1555
1539 1541 1544 1546 1547 1548 1550 1551 1553 1555 1557 1558 1557 1559 1559 1559 1559 1559 1558 1558 1558 1559 1558 1558 1558 1559 1558 1558 1557 1556 1554 1553 1552
1534 1536 1539 1541 1543 1544 1545 1548 1550 1552 1553 1554 1555 1555 1555 1555 1556 1556 1555 1555 1556 1556 1556 1556 1556 1556 1555 1555 1554 1553 1552 1550 1548
1528 1531 1533 1534 1536 1538 1541 1543 1544 1547 1548 1550 1551 1551 1551 1551 1551 1551 1552 1551 1552 1553 1553 1553 1553 1553 1552 1552 1551 1549 1548 1547 1545
1523 1524 1526 1527 1529 1532 1534 1536 1538 1541 1543 1545 1547 1547 1548 1546 1546 1546 1546 1548 1547 1548 1548 1548 1549 1549 1548 1548 1547 1546 1544 1543 1541
1515 1517 1519 1521 1522 1524 1526 1529 1531 1534 1537 1539 1542 1542 1541 1540 1540 1541 1541 1542 1542 1542 1543 1543 1544 1544 1543 1542 1542 1540 1540 1538 1536
1508 1511 1512 1514 1516 1517 1520 1522 1524 1527 1530 1533 1534 1535 1536 1536 1536 1536 1535 1537 1537 1537 1537 1537 1538 1538 1537 1537 1536 1535 1534 1532 1531
1499 1501 1505 1506 1508 1511 1513 1515 1516 1519 1522 1525 1527 1529 1531 1531 1530 1530 1530 1531 1531 1530 1530 1531 1531 1532 1532 1531 1530 1529 1528 1526 1525